Location: Mapua
(41.2500°S, 173.1000°E)
Time: 19:45:23
(UTC+12:00)

ISS - Visible Passes

Search period start: 17 August 2017 00:00
Search period end: 27 August 2017 00:00
Orbit: 401 x 408 km, 51.6° (Epoch: 17 August)

Date Brightness Start Highest point End Pass type
(mag) Time Alt. Az. Time Alt. Az. Time Alt. Az.
17 Aug -2.4 05:22:19 32° SSE 05:22:31 33° SSE 05:25:36 10° E visible
18 Aug -0.4 04:32:21 13° ESE 04:32:21 13° ESE 04:32:52 10° ESE visible
18 Aug -3.8 06:05:02 24° WSW 06:06:50 67° NW 06:10:10 10° NE visible
19 Aug -3.0 05:15:09 53° E 05:15:09 53° E 05:17:54 10° ENE visible
20 Aug -0.2 04:25:22 10° E 04:25:22 10° E 04:25:23 10° E visible
20 Aug -2.7 05:58:02 26° WNW 05:58:37 27° NW 06:01:30 10° NNE visible
21 Aug -1.7 05:08:22 22° NNE 05:08:22 22° NNE 05:09:42 10° NE visible
25 Aug -1.1 19:50:10 10° NNW 19:50:33 12° NNW 19:50:33 12° NNW visible
26 Aug -1.9 18:58:49 10° N 19:00:55 16° NE 19:01:05 16° NE visible
